sat.trackr.live / text

‹ back to catalog

STARLINK-4608

NORAD 53621 · 2022-104AK

PAYLOAD ACTIVE UNKNOWN

§ Identity

Operator
Country
US
Launch date
2022-08-28
Launch site
AFETR
Launch vehicle
Mass (kg)
RCS (m²)

Purposes: comms

External: N2YO · Heavens-Above · Gunter

§ Orbital elements

Epoch: 2026-09-20T21:08:55.414752Z

Period
93.85 min
Inclination
53.1705°
Eccentricity
0.0001698
Mean motion
15.34386828 rev/d
Perigee alt
461.6 km
Apogee alt
463.9 km
Semi-major
6,840.9 km
B*
-2.2460e-5
RAAN
65.8926°
Arg perigee
42.5958°
Mean anomaly
317.5176°
Rev number
22,526

§ Raw data

STARLINK-46081 53621U 22104AK  26263.88119693 -.00001135  00000+0 -22460-4 0  99992 53621  53.1705  65.8926 0001698  42.5958 317.5176 15.34386828225268

JSON: /api/v1/satellites/53621 · /tle

For live sub-satellite position, see the globe view (requires WebGL).

§ Visibility from observer

Set your observer location to see the next 7 days of passes ≥ 10°. The values pass through the URL so the page stays shareable.

No JS? Fill the form by hand. The geolocation button needs JavaScript.